Home > Weather > Wake Island > Past weeks

Flag for US Minor Outlying Islands Weather for the Past 2 Weeks in Wake Island, US Minor Outlying Islands

Now
80 °F

Sunny.


Feels Like: 82 °F
Forecast: 73 / 81 °F
Wind: 10 mph from North

Location: Wake Island Airfld

Current Time: Feb 12, 2016 at 11:48:14 AM

Latest Report: Feb 12, 2016 at 10:58 AM


Visibility: N/A

Pressure: 29.98 "Hg

Humidity: 70%

Dew point: 69 °F

Location of Wake IslandLocation

Historic Weather in Wake Island — Graph

°F

Wake Island Temperature Yesterday

Maximum temperature yesterday: 82 °F (at 2:58 PM)
Minimum temperature yesterday: 74 °F (at 6:58 PM)
Average temperature yesterday: 78 °F

High & Low Weather Summary for the Past Weeks

 TemperatureHumidityPressure
High83 °F (Feb 2, 12:58 PM)94% (Feb 5, 7:58 AM)30.17 "Hg (Feb 5, 7:58 AM)
Low71 °F (Feb 9, 6:58 AM)50% (Jan 30, 11:58 AM)29.86 "Hg (Feb 11, 3:58 PM)
Average77 °F70%30.03 "Hg
* Reported Jan 28 9:58 AM — Feb 12 9:58 AM, Wake Island, Weather by CustomWeather, © 2016

Note: Actual official high and low records may vary slightly from our data, if they occured in-between our weather recording intervals... More about our weather records

Advertising

Wake Island Weather History for the Previous 24 Hours

 ConditionsComfort  
Time TempWeatherWind HumidityBarometerVisibility
9:58 AM
Fri, Feb 12
79 °FSunny.12 mph72%29.99 "HgN/A
8:58 AM77 °FSunny.12 mph76%29.98 "HgN/A
7:58 AM75 °FClear.13 mph81%29.96 "HgN/A
6:58 AM73 °FClear.6 mph80%29.95 "HgN/A
5:58 AM73 °FClear.6 mph82%29.94 "HgN/A
4:58 AM74 °FClear.6 mph86%29.93 "HgN/A
3:58 AM74 °FClear.5 mph82%29.93 "HgN/A
2:58 AM76 °FPassing clouds.6 mph78%29.93 "HgN/A
1:58 AM76 °FPassing clouds.5 mph73%29.94 "HgN/A
12:58 AM75 °FClear.2 mph74%29.95 "HgN/A
11:58 PM
Thu, Feb 11
76 °FOvercast.3 mph74%29.95 "HgN/A
10:58 PM76 °FPassing clouds.5 mph71%29.95 "HgN/A
9:58 PM75 °FOvercast.6 mph74%29.95 "HgN/A
8:58 PM76 °FOvercast.6 mph72%29.95 "HgN/A
7:58 PM76 °FOvercast.7 mph72%29.93 "HgN/A
6:58 PM74 °FMore clouds than sun.16 mph87%29.92 "Hg6 mi
5:58 PM77 °FMore clouds than sun.8 mph77%29.88 "HgN/A
4:58 PM80 °FOvercast.7 mph71%29.87 "HgN/A
3:58 PM81 °FOvercast.6 mph69%29.86 "HgN/A
2:58 PM82 °FOvercast.6 mph66%29.89 "HgN/A
1:58 PM82 °FOvercast.7 mph65%29.90 "HgN/A
12:58 PM82 °FSunny.6 mph67%29.93 "HgN/A
11:58 AM81 °FSunny.7 mph70%29.95 "HgN/A
Weather by CustomWeather, © 2016

See weather overviewHow to use our weather pages